CST,Max TemperatureF,Mean TemperatureF,Min TemperatureF,Max Dew PointF,MeanDew PointF,Min DewpointF,Max Humidity, Mean Humidity, Min Humidity, Max Sea Level PressureIn, Mean Sea Level PressureIn, Min Sea Level PressureIn, Max VisibilityMiles, Mean VisibilityMiles, Min VisibilityMiles, Max Wind SpeedMPH, Mean Wind SpeedMPH, Max Gust SpeedMPH,PrecipitationIn, CloudCover, Events, WindDirDegrees
2012-11-1,81,60,38,30,23,13,57,33,9,30.08,29.96,29.85,10,10,9,21,11,25,0.00,0,,243
2012-11-2,78,58,38,31,21,15,48,29,9,29.99,29.89,29.83,10,10,9,23,12,28,0.00,0,,346
2012-11-3,62,50,38,35,31,27,79,53,27,30.21,30.14,30.01,10,10,10,17,8,22,0.00,0,,54
2012-11-4,73,53,32,37,28,24,75,68,60,30.19,30.12,30.02,10,10,8,16,6,20,0.00,0,,233
2012-11-5,67,53,39,32,28,23,65,45,25,30.27,30.16,30.09,10,10,4,18,8,23,0.00,0,,315
2012-11-6,73,55,36,34,30,26,64,42,20,30.19,30.14,30.08,10,10,10,14,7,18,0.00,0,,6
2012-11-7,81,58,35,33,27,18,75,43,11,30.18,30.00,29.83,10,10,6,24,11,29,0.00,0,,227
2012-11-8,80,60,39,25,18,11,45,26,7,29.97,29.82,29.75,10,10,5,16,9,21,0.00,0,,246
2012-11-9,78,57,36,39,30,25,64,40,15,29.79,29.71,29.63,10,10,9,32,18,40,0.00,0,,222
2012-11-10,76,58,40,49,33,15,86,54,21,29.77,29.62,29.48,10,5,0,49,21,63,0.00,4,,220
2012-11-11,44,34,23,28,18,10,82,58,33,30.33,30.01,29.71,10,10,5,20,8,24,0.00,3,,3
2012-11-12,52,34,16,15,3,-8,77,43,9,30.46,30.41,30.34,10,10,7,15,7,20,0.00,0,,234
2012-11-13,59,38,17,11,6,-1,49,31,13,30.38,30.28,30.14,10,9,4,30,11,36,0.00,0,,215
2012-11-14,65,46,26,17,10,6,50,31,11,30.35,30.22,30.09,10,10,10,23,11,29,0.00,0,,239
2012-11-15,61,44,27,27,20,8,54,38,22,30.36,30.22,30.05,10,10,9,31,15,38,0.00,0,,353
2012-11-16,59,43,26,36,25,20,75,50,25,30.39,30.30,30.19,10,10,10,21,10,24,0.00,0,,228
2012-11-17,64,50,36,41,36,31,92,66,39,30.19,30.12,30.03,10,10,7,24,15,29,0.00,0,,192
2012-11-18,68,55,41,42,37,30,89,58,26,30.09,29.99,29.92,10,9,6,26,11,31,0.00,1,,215
2012-11-19,71,51,31,38,24,19,86,50,14,30.22,30.11,30.01,10,10,10,20,9,24,0.00,0,,352
2012-11-20,71,51,31,27,20,16,63,39,14,30.28,30.21,30.14,10,10,10,21,10,26,0.00,0,,235
2012-11-21,73,49,25,41,29,14,63,43,22,30.19,30.06,29.87,10,9,2,35,16,40,0.00,0,,203
2012-11-22,71,53,34,40,26,14,82,48,13,30.36,30.03,29.83,10,10,10,26,14,33,0.00,0,,12
2012-11-23,52,40,27,22,15,11,58,39,19,30.58,30.48,30.38,10,10,10,15,9,20,0.00,0,,257
2012-11-24,65,44,23,23,16,13,62,39,16,30.37,30.11,29.89,10,10,8,22,11,26,0.00,0,,224
2012-11-25,66,50,33,21,16,10,48,32,16,29.92,29.86,29.78,10,10,10,20,9,23,0.00,0,,29
2012-11-26,45,37,28,27,23,18,85,67,49,30.45,30.22,29.85,10,10,9,29,14,33,0.00,3,,17
2012-11-27,58,39,20,27,20,17,88,57,25,30.45,30.31,30.17,10,9,5,23,11,29,0.00,1,,204
2012-11-28,63,41,19,21,12,5,74,43,12,30.29,30.17,30.05,10,10,9,14,6,17,0.00,0,,262
2012-11-29,72,50,28,20,15,10,49,29,9,30.07,30.00,29.92,10,10,10,16,8,22,0.00,0,,232
2012-11-30,71,51,31,22,19,16,56,35,14,30.07,29.95,29.82,10,10,9,16,7,18,0.00,0,,268